FW8967 Weather Reports


time (UTC)temp
F
wind
direction
speed
knots
gust
knots
rain 1hr
in
rain 24hr
in
rain mn
in
humidity
%
barometer
mb
20260906110056 69 0 0.0 0.0 0.00 0.00 0.00 87 1013.8
20260906104554 69 0 0.0 0.0 0.00 0.00 0.00 87 1013.8
20260906103101 69 0 0.0 0.0 0.00 0.00 0.00 88 1013.8
20260906101559 68 0 0.0 0.0 0.00 0.00 0.00 88 1013.7
20260906100055 68 0 0.0 0.0 0.00 0.00 0.00 88 1013.7
20260906094614 68 0 0.0 0.0 0.00 0.00 0.00 88 1013.7
20260906093101 68 0 0.0 0.0 0.00 0.00 0.00 89 1013.5
20260906091559 68 0 0.0 0.0 0.00 0.00 0.00 90 1013.5
20260906090058 67 0 0.0 0.0 0.00 0.00 0.00 90 1013.1
20260906084602 67 0 0.0 0.0 0.00 0.00 0.00 90 1012.9
20260906083059 67 0 0.0 0.0 0.00 0.00 0.00 91 1012.8
20260906081600 66 0 0.0 0.0 0.00 0.00 0.00 91 1012.8
20260906080059 66 0 0.0 0.0 0.00 0.00 0.00 90 1012.8
20260906074558 66 0 0.0 0.0 0.00 0.00 0.00 89 1012.7
20260906073103 66 0 0.0 0.0 0.00 0.00 0.00 89 1012.6
20260906071600 66 0 0.0 0.0 0.00 0.00 0.00 89 1012.7
20260906070057 67 0 0.0 0.0 0.00 0.00 0.00 88 1012.9
20260906064607 67 0 0.0 0.0 0.00 0.00 0.00 88 1012.9
20260906063100 67 0 0.0 0.0 0.00 0.00 0.00 88 1013.2
20260906061602 67 0 0.0 0.0 0.00 0.00 0.00 87 1013.0
20260906060103 68 0 0.0 0.0 0.00 0.00 0.00 86 1013.2
20260906054603 68 0 0.0 0.0 0.00 0.00 0.00 86 1013.2
20260906053101 68 0 0.0 0.0 0.00 0.00 0.00 86 1013.3
20260906051600 68 0 0.0 0.0 0.00 0.00 0.00 86 1013.2
20260906050059 68 0 0.0 0.0 0.00 0.00 0.00 85 1013.2
20260906044603 68 0 0.0 0.0 0.00 0.00 0.00 83 1013.3
20260906043059 69 0 0.0 0.0 0.00 0.00 0.00 83 1013.0
20260906041558 69 0 0.0 0.0 0.00 0.00 0.00 82 1013.2
20260906040056 70 0 0.0 0.0 0.00 0.00 0.00 82 1013.2
20260906034602 70 0 0.0 0.0 0.00 0.00 0.00 80 1013.4
20260906033105 70 0 0.0 0.0 0.00 0.00 0.00 80 1013.6
20260906031558 71 0 0.0 0.0 0.00 0.00 0.00 79 1013.5
20260906024600 72 0 0.0 0.0 0.00 0.00 0.00 77 1013.2
20260906023058 72 0 0.0 0.0 0.00 0.00 0.00 76 1013.1
20260906021600 73 0 0.0 0.0 0.00 0.00 0.00 74 1012.9
20260906020101 74 0 0.0 0.0 0.00 0.00 0.00 73 1012.8
20260906014605 74 0 0.0 0.0 0.00 0.00 0.00 72 1012.5
20260906013107 75 0 0.0 0.0 0.00 0.00 0.00 70 1012.5
20260906011618 77 0 0.0 0.0 0.00 0.00 0.00 68 1012.4
20260906004557 79 0 0.0 0.0 0.00 0.00 0.00 61 1012.1
20260906003053 79 0 0.0 0.0 0.00 0.00 0.00 61 1011.9
20260906001603 81 0 0.0 0.0 0.00 0.00 0.00 57 1011.9
20260906000100 82 0 0.0 0.0 0.00 0.00 0.00 56 1011.6
20260905234556 82 0 0.0 2.6 0.00 0.00 0.00 55 1011.4
20260905233134 82 0 0.0 0.9 0.00 0.00 0.00 55 1011.5
20260905231600 85 0 0.0 4.3 0.00 0.00 0.00 53 1011.5
20260905224623 86 0 0.0 3.5 0.00 0.00 0.00 52 1011.5
20260905223107 88 268 0.9 3.5 0.00 0.00 0.00 47 1011.5
20260905221557 90 0 0.0 2.6 0.00 0.00 0.00 48 1011.4
20260905220054 90 0 0.0 2.6 0.00 0.00 0.00 52 1011.3
20260905214601 90 0 0.0 2.6 0.00 0.00 0.00 47 1011.2
20260905213100 90 0 0.0 1.7 0.00 0.00 0.00 50 1011.1
20260905211558 89 0 0.0 0.9 0.00 0.00 0.00 49 1010.9
20260905210108 89 174 0.9 3.5 0.00 0.00 0.00 49 1010.9
20260905204600 89 0 0.0 2.6 0.00 0.00 0.00 49 1011.0
20260905203101 89 284 0.0 7.8 0.00 0.00 0.00 46 1010.9
20260905201608 90 317 0.9 4.3 0.00 0.00 0.00 45 1011.0
20260905200104 92 299 0.9 6.1 0.00 0.00 0.00 42 1010.8
20260905194600 91 80 0.9 8.7 0.00 0.00 0.00 44 1010.7
20260905193057 91 0 0.0 2.6 0.00 0.00 0.00 50 1010.7
20260905191557 90 295 0.0 4.3 0.00 0.00 0.00 48 1011.0
20260905190137 88 290 0.0 5.2 0.00 0.00 0.00 52 1011.2
20260905184622 85 262 0.9 8.7 0.00 0.00 0.00 55 1011.9
20260905183059 85 285 1.7 9.6 0.00 0.00 0.00 55 1012.3
20260905181555 85 291 2.6 7.0 0.00 0.00 0.00 56 1012.5
20260905180053 85 65 0.9 4.3 0.00 0.00 0.00 55 1012.4
20260905174601 85 279 0.0 4.3 0.00 0.00 0.00 55 1012.4
20260905173058 86 0 0.0 2.6 0.00 0.00 0.00 55 1012.1
20260905171557 85 107 0.9 3.5 0.00 0.00 0.00 55 1012.5
20260905170120 87 276 0.0 3.5 0.00 0.00 0.00 53 1013.0
20260905164602 86 0 0.0 1.7 0.00 0.00 0.00 54 1013.3
20260905163106 85 228 0.0 3.5 0.00 0.00 0.00 56 1013.5
20260905161604 85 0 0.0 6.1 0.00 0.00 0.00 56 1013.7
20260905160105 85 230 0.0 3.5 0.00 0.00 0.00 59 1014.1
20260905154603 85 0 0.9 3.5 0.00 0.00 0.00 63 1014.2
20260905153058 83 0 0.0 1.7 0.00 0.00 0.00 62 1014.3
20260905151603 84 0 0.9 9.6 0.00 0.00 0.00 63 1014.4
20260905150101 85 122 0.9 3.5 0.00 0.00 0.00 61 1014.0
20260905144559 85 0 0.0 3.5 0.00 0.00 0.00 62 1013.7
20260905143100 85 0 0.9 4.3 0.00 0.00 0.00 60 1013.7
20260905141619 86 154 0.0 3.5 0.00 0.00 0.00 58 1013.7
20260905134600 85 0 0.0 0.9 0.00 0.00 0.00 63 1013.6
20260905133057 83 0 0.9 3.5 0.00 0.00 0.00 65 1013.4
20260905131619 82 0 0.0 2.6 0.00 0.00 0.00 66 1013.4
20260905130108 80 0 0.0 1.7 0.00 0.00 0.00 71 1013.3
20260905124601 77 0 0.0 0.0 0.00 0.00 0.00 78 1013.3
20260905123108 73 0 0.0 0.0 0.00 0.00 0.00 83 1013.4
20260905121603 69 0 0.0 0.0 0.00 0.00 0.00 87 1013.5
20260905120100 68 0 0.0 0.0 0.00 0.00 0.00 89 1013.7
20260905114557 67 0 0.0 0.0 0.00 0.00 0.00 90 1013.3
20260905113101 67 0 0.0 0.0 0.00 0.00 0.00 89 1013.3
20260905111558 67 0 0.0 0.0 0.00 0.00 0.00 90 1013.3